Content
SEND FEEDBACK

Daily
Averages
Monthly
Summary
United States of America

AGAT, GUAM


Home > North America > United States > Guam
Elevation: 364 feet     Latitude: 13 33N     Longitude: 144 50E

WEATHER
 
SELECT A DAY
Number of Records: 209,379;   Date Range: 1/1/95 - 9/21/14
 
SHARE

PRINT THIS DATA

[ ← Previous Day ]
WEATHER ALMANAC - OCTOBER 24, 2013
[ Next Day → ]
[ °C ]   °F
We're sorry. There is no daily almanac available for Agat, Guam on October 24, 2013.
WEATHER BY HOUR - OCTOBER 24, 2013
[ °C ]   °F
Local TimeTemperatureDewpointHumidityBarometerVisibilityWind DirectionWind SpeedGust SpeedPrecipitationEventsConditions
1:54 AM80.1 °F75.9 °F87 %29.70 in10.0 miWest (280°)9.2 mphScattered Clouds
2:54 AM80.1 °F75.9 °F87 %29.69 in10.0 miWest (260°)11.5 mphPartly Cloudy
3:54 AM79.0 °F77.0 °F94 %29.68 in10.0 miWest (270°)6.9 mphPartly Cloudy
4:09 AM80.6 °F77.0 °F89 %29.71 in10.0 miWest (260°)8.1 mphMostly Cloudy
4:22 AM78.8 °F77.0 °F94 %29.71 in10.0 miSW (230°)6.9 mphMostly Cloudy
4:37 AM78.8 °F77.0 °F94 %29.71 in10.0 miWSW (240°)5.8 mphMostly Cloudy
4:51 AM78.8 °F77.0 °F94 %29.71 in10.0 miWSW (240°)5.8 mphScattered Clouds
4:54 AM79.0 °F77.0 °F94 %29.69 in10.0 miWSW (240°)5.8 mphMostly Cloudy
5:08 AM78.8 °F75.2 °F89 %29.71 in10.0 miWSW (250°)5.8 mphScattered Clouds
5:19 AM78.8 °F75.2 °F89 %29.72 in10.0 miWSW (250°)6.9 mphMostly Cloudy
5:40 AM78.8 °F75.2 °F89 %29.72 in10.0 miWSW (250°)6.9 mphScattered Clouds
5:54 AM78.1 °F75.9 °F93 %29.70 in10.0 miWSW (250°)5.8 mphPartly Cloudy
6:54 AM80.1 °F77.0 °F90 %29.72 in10.0 miWSW (250°)9.2 mphPartly Cloudy
7:54 AM82.0 °F78.1 °F88 %29.75 in10.0 miWest (270°)11.5 mphMostly Cloudy
8:01 AM82.4 °F78.8 °F89 %29.77 in10.0 miWest (260°)12.7 mphMostly Cloudy
8:13 AM82.4 °F78.8 °F89 %29.77 in10.0 miWest (270°)11.5 mphScattered Clouds
8:22 AM82.4 °F78.8 °F89 %29.78 in10.0 miWest (260°)12.7 mphMostly Cloudy
8:35 AM82.4 °F78.8 °F89 %29.78 in10.0 miWest (260°)13.8 mphScattered Clouds
8:54 AM82.9 °F78.1 °F85 %29.75 in10.0 miWest (260°)11.5 mphPartly Cloudy
9:54 AM84.9 °F78.1 °F80 %29.75 in10.0 miWest (260°)15.0 mphScattered Clouds
10:54 AM86.0 °F78.1 °F77 %29.73 in10.0 miWest (280°)12.7 mphPartly Cloudy
11:54 AM84.9 °F78.1 °F80 %29.70 in10.0 miWest (270°)13.8 mphPartly Cloudy
12:54 PM86.0 °F77.0 °F74 %29.68 in10.0 miWest (280°)12.7 mphPartly Cloudy
1:54 PM84.9 °F78.1 °F80 %29.67 in10.0 miWest (280°)12.7 mphPartly Cloudy
2:54 PM84.0 °F79.0 °F85 %29.66 in10.0 miWest (280°)11.5 mphPartly Cloudy
3:38 PM82.4 °F78.8 °F89 %29.69 in10.0 miWest (260°)10.4 mphMostly Cloudy
3:54 PM84.0 °F77.0 °F79 %29.67 in10.0 miWSW (240°)8.1 mphMostly Cloudy
4:09 PM82.4 °F77.0 °F84 %29.70 in10.0 miWSW (250°)9.2 mphMostly Cloudy
4:37 PM82.4 °F77.0 °F84 %29.71 in10.0 miWSW (250°)9.2 mphMostly Cloudy
4:54 PM82.9 °F77.0 °F82 %29.69 in10.0 miSW (230°)8.1 mphMostly Cloudy
5:09 PM82.4 °F77.0 °F84 %29.71 in10.0 miWSW (240°)8.1 mphMostly Cloudy
5:54 PM81.0 °F77.0 °F88 %29.70 in10.0 miWSW (250°)9.2 mphClear
6:54 PM80.1 °F77.0 °F90 %29.72 in10.0 miSW (220°)4.6 mphPartly Cloudy
7:54 PM79.0 °F75.9 °F90 %29.73 in10.0 miWSW (240°)5.8 mphPartly Cloudy
8:54 PM78.1 °F75.9 °F93 %29.75 in10.0 miWSW (250°)4.6 mphClear
9:54 PM80.1 °F75.9 °F87 %29.76 in10.0 miSSW (200°)3.5 mphClear
10:54 PM79.0 °F75.9 °F90 %29.75 in10.0 miSW (230°)3.5 mphClear
11:54 PM79.0 °F75.9 °F90 %29.75 in10.0 miCalmClear
Hourly data recorded from PGUM, located miles away from Agat, Guam







STORIES FROM OUR PARTNERS